Theta_e
347 347 347 348 343 341 345 347 351 353 354 347 343 351 354 356 356 356 357 355 356 355 356 355 353 352 354 353 352 351 350 350 348 341 342 352 350 350 354 353 351 350 350 349 347 346 345 345 342 341 342 345 346 344 341 342 343 342 342 340 339 337 334 332 330 328 326 325 325 324 323 325 325 324 327 330 330 323 320 319 328 342 343 342 342 342 344 343 342 343 341 339 340 343 342 342 342
349 348 347 345 340 344 350 350 351 348 348 344 345 352 354 357 356 357 357 356 357 355 355 354 352 352 355 354 352 351 353 354 353 351 352 351 350 353 354 352 351 350 350 348 347 346 347 346 344 344 344 346 347 344 341 341 341 339 340 338 338 336 332 328 326 326 325 325 324 324 325 325 324 325 328 331 333 327 322 320 328 339 341 342 342 342 343 341 343 343 336 336 341 341 341 340 341
348 346 344 342 342 349 353 352 350 343 342 342 345 354 355 356 357 356 356 356 356 354 355 353 351 353 355 353 352 352 354 353 354 353 352 350 350 352 353 351 351 350 349 349 348 347 347 347 345 345 344 345 346 342 339 339 338 337 337 337 337 335 331 327 325 325 325 324 324 325 325 325 325 327 330 334 334 327 322 321 329 340 343 343 342 342 341 340 343 341 333 339 342 339 340 340 340
343 342 342 344 349 353 354 353 351 342 341 340 344 354 356 356 355 353 354 354 355 354 354 353 352 354 356 354 353 353 355 354 353 353 351 350 350 351 352 351 351 350 349 350 349 348 349 347 345 345 344 342 341 339 338 337 337 336 335 335 335 333 330 327 326 325 324 324 324 325 325 325 327 330 333 336 333 325 321 324 334 343 342 341 340 340 340 341 342 338 337 341 341 339 340 341 340
342 343 346 350 353 354 355 353 349 345 345 345 346 354 355 355 354 353 355 354 354 355 354 354 353 354 356 356 355 354 355 355 354 353 351 350 350 351 352 352 351 352 351 351 351 351 350 346 344 344 340 337 336 336 335 334 333 331 330 330 330 329 327 326 325 324 324 325 325 324 324 326 328 332 335 337 332 323 322 328 338 343 340 339 339 339 340 342 343 339 340 341 340 341 341 340 339
349 350 351 353 354 354 354 349 345 347 350 353 352 354 355 354 354 354 356 354 354 355 354 354 354 355 355 356 357 358 357 356 354 352 352 351 350 351 352 352 352 352 351 352 352 352 349 343 342 342 336 333 334 335 334 331 327 325 326 326 326 325 325 324 324 324 324 324 324 325 326 328 330 334 336 337 332 324 325 330 339 341 338 338 338 340 342 343 344 341 340 341 341 343 342 340 340
353 353 354 355 355 355 353 345 345 348 353 356 354 355 355 354 354 355 356 354 354 354 354 354 355 355 356 356 356 358 356 355 355 354 353 350 350 351 352 352 351 351 351 352 351 349 346 340 340 340 333 331 334 335 334 330 326 324 323 323 324 324 324 324 324 324 324 324 325 326 328 329 332 334 335 337 332 326 328 332 336 336 334 335 337 341 344 343 344 342 339 342 343 344 344 343 343
353 354 356 355 355 354 350 346 348 351 353 354 355 355 355 354 354 354 355 355 356 354 354 355 356 356 356 356 356 357 356 355 355 353 352 349 349 351 352 352 351 350 349 350 348 345 344 338 339 339 332 331 332 334 334 331 328 325 324 323 322 323 323 323 324 324 323 325 326 328 329 331 334 335 336 337 333 329 331 333 333 332 331 332 337 342 344 343 344 344 342 342 344 345 345 345 345
354 355 356 354 352 350 347 347 350 353 355 354 355 356 355 355 354 355 354 355 356 355 354 355 356 357 356 358 358 357 356 355 354 352 352 349 349 351 352 352 350 349 349 349 346 342 341 336 337 337 331 330 329 332 333 332 331 328 326 323 322 322 323 324 324 324 324 326 328 329 331 333 334 334 337 337 332 331 333 333 331 330 330 332 337 342 342 342 344 345 345 344 344 345 346 347 347
355 355 355 354 350 345 343 346 352 355 356 355 356 357 356 356 355 355 355 355 356 355 355 356 356 357 356 358 359 357 356 355 354 352 351 350 350 351 352 352 350 349 347 346 344 339 337 334 334 334 332 330 327 328 330 332 332 330 328 326 324 322 322 323 323 323 323 325 328 329 332 333 333 336 337 334 331 332 332 331 329 327 329 332 337 340 340 340 342 343 343 342 343 344 345 346 348
357 355 355 352 344 340 340 345 351 355 356 356 356 356 356 355 356 355 354 355 356 356 356 356 356 356 358 358 358 357 355 354 353 351 351 350 350 352 353 353 351 349 345 342 340 336 334 333 332 332 331 329 326 325 327 330 332 331 330 328 326 323 322 322 322 322 324 326 328 330 331 333 335 338 335 332 332 331 330 328 326 326 330 334 336 337 337 338 340 341 341 342 343 343 344 346 348
355 353 355 350 344 344 345 347 351 355 356 355 355 355 356 355 356 356 355 356 357 357 357 357 356 356 357 358 358 356 354 353 352 350 350 350 351 352 353 353 351 350 347 343 339 333 331 330 331 331 328 327 327 325 325 328 330 330 330 329 327 324 322 321 322 322 326 327 329 330 333 334 337 336 333 331 330 328 326 325 325 328 332 335 334 333 335 338 341 342 343 345 344 344 345 346 348
356 353 354 348 349 351 349 351 352 354 355 355 355 355 355 355 356 355 356 357 358 358 357 357 356 357 357 358 358 356 354 353 352 350 349 350 352 352 353 353 351 350 348 345 341 336 330 327 331 333 329 327 327 325 325 326 328 329 329 328 326 323 322 322 323 324 327 328 330 332 334 335 336 332 329 327 325 324 323 324 328 332 334 334 332 332 337 341 343 345 347 348 347 346 345 346 346
357 355 354 351 353 353 353 352 352 351 351 356 356 355 355 356 356 355 356 357 357 358 357 356 356 357 358 357 358 356 354 352 351 349 349 351 351 352 353 352 351 351 348 347 347 344 335 329 330 330 328 327 327 326 325 326 327 327 327 325 324 323 322 323 324 326 327 329 331 334 335 335 332 328 325 323 322 323 323 328 333 335 334 332 332 335 340 342 343 345 347 348 348 346 345 346 345
357 355 355 353 351 351 353 353 354 352 350 356 357 356 356 356 356 356 357 356 356 357 355 355 356 357 357 356 358 356 354 352 350 349 350 351 351 352 352 352 352 350 349 349 350 349 344 339 335 327 326 327 325 325 324 325 325 324 324 323 323 322 323 324 325 327 329 332 334 335 333 331 328 325 323 323 323 323 327 333 335 333 332 333 334 337 340 340 341 344 347 348 347 344 346 346 346
356 355 355 351 350 350 352 354 354 352 352 356 357 356 356 357 357 357 357 356 356 356 355 356 355 357 357 355 357 356 353 351 349 348 349 351 352 352 352 352 351 351 350 351 351 350 349 346 340 331 325 325 325 325 323 323 323 323 323 322 323 323 324 326 326 331 334 335 333 330 329 328 326 325 325 323 324 329 334 335 333 332 333 336 339 341 342 343 345 347 348 348 346 346 347 346 346
355 356 354 348 350 350 352 355 352 351 354 356 358 357 356 356 357 357 355 357 357 356 356 357 357 357 357 356 356 354 351 350 349 348 349 351 351 352 352 352 351 351 351 351 351 351 351 349 344 333 326 328 330 328 323 323 324 323 323 323 324 326 327 329 333 337 338 337 333 326 325 328 325 326 326 324 329 335 336 333 332 337 340 343 345 346 346 347 348 349 348 347 347 348 347 347 348
356 357 353 347 350 351 353 355 354 354 355 356 358 358 356 356 357 357 357 358 358 357 357 357 358 359 357 357 355 352 350 349 348 348 349 350 351 351 352 352 351 351 351 351 351 351 350 349 345 335 329 332 332 330 326 326 330 326 327 332 334 335 336 337 340 340 338 338 334 326 323 326 325 326 326 328 335 336 333 335 340 344 346 347 347 347 347 347 348 348 347 347 348 348 349 351 352
357 355 350 348 352 353 355 356 356 356 355 356 358 358 358 357 357 357 358 359 358 357 357 357 359 359 358 356 354 351 349 349 348 348 348 348 349 349 350 351 351 351 350 350 350 348 347 347 345 340 337 335 334 334 330 330 335 333 335 339 340 341 341 340 339 338 336 334 330 324 324 328 326 326 329 334 337 335 335 340 344 346 347 347 346 346 347 347 346 348 347 348 349 351 352 353 353
357 355 350 349 352 354 356 356 356 357 356 358 359 358 359 356 357 358 358 358 357 357 357 357 359 358 357 355 352 351 349 349 349 348 348 349 348 348 348 349 350 350 349 349 349 346 345 345 344 343 341 337 336 337 334 335 337 338 340 341 340 341 340 338 337 336 332 327 325 325 333 336 332 333 336 337 338 339 342 346 347 348 349 348 346 349 351 348 349 350 350 349 351 352 353 352 351
357 355 350 350 354 355 355 355 357 357 357 359 358 359 359 358 357 358 358 356 356 357 357 357 358 357 356 355 352 350 350 350 349 349 350 349 349 349 348 348 348 348 348 348 348 346 345 344 343 342 339 336 336 336 339 340 339 340 341 341 339 336 334 333 333 331 329 327 327 333 341 340 336 340 339 336 341 344 348 351 352 351 351 351 349 351 353 351 351 352 351 351 352 352 351 350 350
356 355 351 352 353 353 354 356 357 356 357 357 359 360 359 359 358 358 357 354 355 356 357 358 357 357 356 354 352 351 351 351 350 350 351 350 351 350 349 348 348 348 348 348 348 346 344 344 344 342 338 335 334 336 340 340 338 339 341 339 335 333 331 329 328 331 334 331 331 338 342 342 342 346 344 341 345 348 351 352 352 351 352 352 351 352 352 351 352 352 352 352 351 351 350 350 350
356 353 353 353 354 354 353 356 358 356 357 358 360 361 359 358 358 358 357 355 356 357 357 358 357 357 355 353 352 352 352 351 350 350 350 351 350 350 349 349 349 349 348 348 348 346 344 344 344 343 340 336 334 337 339 337 336 338 339 335 332 335 333 329 333 338 338 334 335 339 341 345 349 349 348 347 349 351 352 351 351 352 352 352 352 352 351 352 352 351 352 351 350 349 349 349 349
356 353 353 351 352 355 354 355 358 356 356 358 360 360 360 360 358 357 358 357 358 358 357 358 358 357 354 353 353 352 353 351 350 349 349 348 348 349 348 348 347 348 348 347 348 345 344 344 342 343 342 336 335 336 337 338 337 337 338 332 331 333 329 332 340 340 337 336 338 339 339 347 351 349 350 351 351 352 351 351 352 352 352 352 352 352 351 352 351 352 351 350 350 349 349 349 348
356 352 350 348 349 353 353 355 356 356 356 358 358 360 361 361 359 359 360 360 359 359 358 359 358 356 355 354 353 353 353 352 351 350 348 346 345 346 346 346 345 346 346 346 346 345 344 343 340 342 340 335 337 337 339 342 338 337 338 334 334 332 328 335 339 338 340 342 342 340 340 346 351 351 351 352 352 352 352 352 352 352 352 352 352 352 351 351 351 351 350 350 349 350 349 349 349
351 347 346 347 348 349 352 355 356 357 358 358 358 360 361 359 360 360 361 360 359 359 359 358 358 356 356 355 354 354 353 353 353 351 349 347 346 345 345 344 344 345 344 345 345 346 345 343 341 342 341 338 340 342 343 343 337 335 336 335 335 331 330 336 337 341 346 347 348 343 339 343 349 352 351 352 352 352 352 352 352 352 352 352 352 351 351 351 351 351 351 350 350 350 349 349 349
345 343 345 346 348 351 353 357 358 358 358 359 359 359 359 358 359 360 360 359 359 359 359 357 358 357 356 355 355 354 354 353 353 352 350 349 349 347 345 343 343 343 344 344 344 346 345 343 343 343 343 339 341 345 340 336 332 330 332 335 340 337 335 338 339 344 348 349 350 344 338 340 346 351 352 352 352 352 352 353 352 352 352 352 351 351 351 351 351 352 350 350 350 350 350 349 348
343 343 344 347 351 353 356 359 359 360 359 359 360 359 359 358 358 360 359 359 359 359 359 358 358 358 356 355 355 354 355 353 353 352 351 351 350 349 347 345 344 342 343 344 343 345 345 343 344 344 343 337 335 343 337 330 331 329 331 336 342 341 337 340 344 347 348 349 347 341 339 340 343 349 351 350 351 352 353 352 352 352 351 351 351 351 352 351 352 351 351 350 350 349 349 347 347
342 343 345 349 353 354 356 359 359 361 360 358 360 358 357 359 359 361 359 357 359 358 358 358 358 359 357 356 356 355 355 354 353 352 351 350 350 349 348 346 345 344 343 344 343 345 344 344 345 344 344 336 330 338 338 334 336 336 338 339 341 341 340 342 345 348 348 347 343 339 340 341 343 349 350 349 350 352 352 352 352 351 351 351 351 351 351 351 352 352 351 350 348 348 348 346 347
343 345 347 348 350 352 357 358 358 362 360 359 360 352 353 361 361 360 359 358 359 357 357 358 357 358 358 357 356 356 356 355 354 353 351 350 350 350 348 346 347 345 345 345 344 345 345 344 343 344 344 338 330 332 334 334 338 342 342 344 344 342 344 346 346 347 347 345 343 340 340 342 343 346 348 347 348 351 351 351 351 351 351 350 351 351 351 352 352 351 350 348 346 346 347 346 346
344 345 347 346 341 344 354 355 358 361 357 360 360 349 351 361 361 359 358 358 359 356 357 357 356 357 358 357 356 357 356 356 355 353 352 352 351 350 348 348 347 347 346 346 347 345 346 345 340 342 340 336 333 329 329 332 338 345 345 346 347 344 345 348 347 348 347 346 347 345 340 340 343 343 344 345 346 350 350 350 350 350 351 350 352 352 352 352 351 350 349 349 348 347 347 346 346
345 341 340 342 337 341 352 352 353 354 355 361 359 349 351 361 360 359 358 358 358 357 357 356 356 357 357 358 357 357 356 356 356 354 353 353 352 350 349 349 347 348 347 346 348 346 347 345 337 339 338 335 335 329 328 333 339 347 347 345 346 345 345 347 348 347 347 348 349 348 343 340 343 343 342 342 343 349 349 349 349 349 350 351 351 351 352 351 351 351 350 350 350 348 347 347 347
345 340 335 338 336 339 346 350 351 351 353 360 358 349 352 362 360 358 358 358 359 358 358 356 356 357 357 358 357 358 357 356 356 355 354 352 352 351 350 350 349 348 348 348 349 347 348 346 337 340 342 337 337 335 332 337 343 347 347 346 346 346 347 348 347 347 347 347 348 350 346 341 341 341 341 340 342 348 349 349 349 350 350 351 351 351 351 351 350 350 350 350 350 347 346 348 349
339 340 336 337 337 335 338 345 350 349 350 355 357 354 354 359 359 359 358 358 359 359 358 357 357 357 357 358 357 357 357 357 357 356 354 353 353 353 352 351 351 350 350 350 350 348 347 348 343 342 345 342 339 339 338 341 346 347 346 348 347 345 348 349 348 348 348 348 349 349 343 339 341 341 342 343 343 347 349 349 350 349 349 350 351 351 351 350 351 351 350 350 349 345 345 349 351
335 335 334 335 336 335 334 338 341 341 343 348 354 355 355 358 358 358 359 358 359 359 359 357 358 357 356 357 356 356 357 357 357 356 355 355 355 354 354 353 353 352 352 351 351 350 348 349 348 341 341 345 343 339 341 345 349 348 348 351 348 345 347 349 349 349 349 348 349 346 340 341 344 344 345 345 344 346 349 350 350 347 348 350 351 350 350 351 351 349 348 349 348 346 350 351 351
336 336 335 333 332 334 336 336 336 339 340 344 350 351 354 359 358 358 359 359 359 358 359 358 358 358 357 356 355 356 356 356 358 357 355 355 355 355 355 354 355 354 354 353 351 351 350 350 351 341 334 343 345 341 341 345 349 350 349 351 349 348 348 349 349 349 349 349 348 346 344 345 346 345 345 345 343 344 346 348 347 346 348 350 351 351 350 350 349 346 346 349 349 351 352 353 354
338 337 336 334 331 333 337 335 338 341 338 342 348 348 352 357 357 358 359 358 359 358 359 359 358 358 357 357 356 356 355 355 356 355 355 355 355 355 355 355 355 355 354 354 352 351 350 349 349 342 334 339 344 343 343 346 349 350 349 350 349 350 349 350 350 349 349 348 347 346 347 347 346 344 345 346 345 341 341 346 347 347 348 350 349 348 347 345 345 346 348 349 350 352 351 353 353
337 336 334 332 331 333 336 336 340 341 338 342 349 348 353 359 358 358 358 358 358 358 359 359 358 358 358 357 356 357 355 355 355 355 355 355 355 354 355 355 354 354 353 353 352 351 350 349 348 344 339 338 342 343 345 346 348 350 348 349 349 349 349 349 349 348 348 348 346 345 347 347 346 345 345 345 343 339 340 346 348 348 348 348 345 344 345 345 347 350 351 350 352 353 351 352 350
334 335 331 329 332 333 334 339 342 341 337 339 345 345 352 361 358 357 359 358 358 358 358 358 357 358 357 356 357 356 356 355 356 356 356 355 355 354 354 355 353 353 353 353 352 352 351 350 350 349 344 339 340 343 345 346 349 350 349 349 350 350 350 350 349 349 349 349 348 347 348 346 344 346 346 346 343 340 340 343 347 349 348 345 344 345 347 349 351 353 352 351 352 353 351 350 346
333 333 329 327 332 330 329 335 339 338 335 340 346 347 356 362 358 357 358 357 359 359 358 357 357 357 357 357 357 356 355 356 356 357 356 355 355 354 353 354 353 352 352 352 352 352 352 351 350 350 348 342 342 342 343 348 349 346 345 347 347 348 350 349 349 348 348 349 350 349 349 346 345 348 348 346 346 342 339 340 345 348 348 343 344 349 350 351 352 352 350 348 349 352 350 345 341
333 333 330 328 330 329 328 333 335 336 339 347 348 339 347 360 358 358 358 356 360 359 358 358 356 356 356 356 356 356 356 356 357 357 356 355 354 354 354 353 353 352 351 351 351 352 351 352 350 348 347 346 346 342 339 345 347 341 341 341 340 342 345 346 347 347 347 347 348 348 348 348 347 348 348 346 345 342 339 340 343 345 347 346 347 351 351 351 353 353 348 345 350 351 343 336 336
330 332 331 329 330 330 332 334 334 333 335 347 345 327 333 355 359 358 358 356 358 360 360 359 356 356 356 356 356 355 356 356 356 357 356 356 355 354 353 353 353 352 351 351 350 351 351 351 349 347 347 347 348 345 341 343 343 339 340 342 342 343 345 346 346 346 345 346 347 347 347 348 349 349 349 347 344 341 341 342 343 344 347 349 350 351 352 353 353 350 346 346 351 346 333 330 334
327 329 330 329 330 330 332 333 332 328 329 341 343 330 328 343 355 359 359 357 357 357 359 358 357 356 355 356 356 355 356 356 356 355 355 356 354 354 353 352 353 351 351 351 349 350 350 350 349 349 347 346 349 348 344 343 342 339 341 346 347 346 345 346 346 347 346 346 347 348 347 348 348 349 349 347 343 342 342 343 343 344 346 349 350 352 353 351 349 346 344 349 349 337 326 328 332
326 329 330 329 330 330 332 333 331 331 333 335 342 338 328 330 348 360 357 357 359 356 357 358 358 357 355 355 356 355 356 356 357 356 355 354 354 355 354 352 352 351 350 350 350 349 349 349 349 349 347 343 347 348 344 343 343 340 340 345 348 345 345 346 346 346 347 348 348 348 348 348 348 348 347 345 343 343 343 344 344 344 343 346 349 352 350 346 346 345 347 350 344 329 325 328 328
328 330 330 329 330 332 334 334 332 334 333 327 333 339 328 327 343 358 358 358 360 359 357 357 358 357 355 355 355 355 356 356 356 356 355 354 354 355 353 352 352 350 349 348 349 348 349 349 348 349 346 341 344 346 344 344 344 341 340 345 348 346 345 346 345 347 347 348 348 348 349 349 349 348 347 344 343 343 343 344 343 342 344 345 348 351 346 342 344 346 349 349 336 325 327 328 327
331 330 329 331 331 332 335 334 332 332 328 324 328 333 328 325 335 350 355 354 356 359 357 357 358 357 356 355 354 354 355 355 355 356 356 356 355 354 353 353 352 350 349 349 349 348 348 348 348 349 346 341 342 343 343 344 344 343 342 344 347 346 347 346 346 348 347 345 346 347 348 348 348 349 349 347 344 343 343 343 343 344 348 348 346 346 343 344 346 347 350 345 329 324 328 327 327
330 330 330 331 332 335 336 335 332 327 324 325 327 332 330 325 329 340 348 347 348 352 355 357 359 359 357 356 355 354 355 356 356 356 357 356 355 355 354 353 353 351 350 348 349 348 348 348 348 349 345 343 343 342 343 344 344 344 343 342 342 344 346 347 347 347 346 345 347 348 348 348 349 349 349 349 347 345 343 342 343 346 348 346 343 343 344 346 347 349 350 338 325 326 328 327 327
329 330 329 327 327 331 329 329 329 325 323 326 330 333 331 326 328 335 343 345 345 347 351 355 358 361 360 358 357 356 354 355 356 356 357 358 356 355 354 354 353 353 351 349 349 348 348 348 348 348 347 345 345 344 344 345 344 344 344 342 341 341 343 346 347 347 347 347 347 348 349 349 349 349 349 349 348 348 346 343 343 345 344 343 343 343 344 346 348 350 346 332 324 327 327 326 327
329 329 327 322 322 324 323 323 325 324 323 328 332 333 330 327 332 338 342 343 345 347 349 352 356 360 361 359 358 357 357 356 356 357 358 358 357 355 355 355 354 353 352 350 349 349 349 348 348 349 347 346 346 346 345 346 345 344 343 343 343 341 340 343 346 347 347 347 348 348 349 348 348 349 349 349 349 349 348 346 344 344 343 343 344 343 345 347 349 349 342 328 324 327 327 326 327
329 326 324 321 320 321 322 322 324 324 323 328 334 333 328 328 334 340 343 344 346 349 350 352 355 358 361 361 359 359 359 358 357 358 358 359 359 356 356 355 355 354 353 352 351 350 350 348 348 349 347 346 346 346 346 346 345 345 343 343 344 343 342 342 344 346 345 347 348 348 348 348 349 349 349 350 349 348 348 346 343 342 343 343 343 343 346 348 348 348 337 325 325 328 327 327 329
329 329 327 322 320 321 321 322 323 324 324 325 331 331 326 326 333 341 342 344 347 348 350 353 355 358 360 361 361 360 359 358 358 358 358 359 358 356 356 355 354 355 354 352 352 350 350 350 349 350 348 346 346 346 346 345 345 345 344 343 344 346 346 344 344 345 346 347 348 347 348 349 349 350 350 349 346 345 345 343 341 343 342 342 342 344 346 348 348 345 332 323 326 328 327 328 330
328 331 327 322 323 324 322 323 325 325 324 325 326 328 329 332 335 340 342 344 346 348 350 353 355 357 360 361 362 361 360 358 358 359 359 360 359 356 356 356 355 355 355 354 352 351 351 350 349 350 349 346 346 346 346 345 345 345 344 343 344 346 346 346 345 344 345 347 347 347 348 350 350 351 351 349 346 344 343 341 342 343 342 341 343 345 348 348 347 342 329 323 326 328 327 328 329
327 326 323 325 329 327 322 322 326 325 324 325 325 325 329 332 335 340 342 341 344 346 349 353 354 357 360 361 362 361 361 359 358 359 360 360 360 357 356 356 356 356 355 354 353 352 351 351 351 350 349 348 346 346 346 346 345 345 344 343 343 345 346 345 344 343 345 347 348 348 348 350 350 350 351 350 348 344 341 341 342 342 341 342 343 345 347 347 346 340 327 323 326 328 327 327 328
326 323 325 329 331 329 326 324 326 326 324 325 324 323 325 326 329 337 340 340 342 344 347 351 354 356 358 359 361 361 361 360 358 359 359 360 360 358 358 357 357 357 355 354 354 353 352 351 351 350 350 349 347 346 346 346 346 345 344 344 345 346 346 345 344 344 344 346 348 348 348 349 350 351 351 350 348 343 341 343 343 342 342 343 344 346 347 346 346 338 326 323 326 327 327 326 328
328 326 330 328 325 325 326 325 325 325 324 324 323 323 324 324 327 333 336 339 339 343 347 349 351 353 355 357 359 362 361 361 360 359 359 360 361 360 358 357 357 356 354 354 353 353 353 352 351 351 350 350 349 346 345 347 347 347 346 346 347 347 347 345 345 344 343 345 348 349 349 349 350 352 351 347 345 343 342 343 344 343 343 344 344 347 347 346 345 336 325 323 326 327 327 326 327
330 329 331 330 327 326 327 327 326 325 325 324 323 323 323 326 331 333 337 339 340 343 345 345 348 350 352 354 358 360 362 362 362 360 359 360 360 360 358 357 356 356 355 354 353 353 353 352 352 352 350 349 349 346 346 347 347 348 347 347 348 347 347 345 344 345 343 343 346 349 349 350 350 351 351 347 344 344 344 344 344 344 344 345 345 347 348 346 344 335 324 323 326 327 327 326 326
327 325 325 327 327 329 329 329 327 326 324 324 324 322 323 329 336 338 339 340 340 342 343 344 346 347 351 354 356 359 361 362 362 361 359 359 360 359 358 357 356 355 355 354 353 353 353 352 352 352 351 349 349 347 346 346 346 347 347 347 347 347 345 344 343 343 342 342 345 347 349 350 350 351 351 347 343 344 344 344 344 345 346 346 346 348 348 346 344 334 324 324 326 326 327 327 325
328 326 325 325 327 326 326 326 326 326 325 324 325 322 323 331 339 340 339 341 342 344 344 346 347 348 351 354 356 359 361 362 362 361 359 359 360 358 358 357 356 355 355 355 354 352 353 352 352 352 351 350 349 347 347 346 346 347 347 346 348 348 345 343 343 344 342 340 343 347 349 349 350 351 349 346 344 344 344 345 345 345 346 346 347 348 348 347 343 333 324 324 325 326 328 326 325
Wind_Speed
14 13 13 11 11 9 8 6 3 3 3 1 2 4 2 1 0 1 3 2 1 2 3 5 10 12 4 2 7 6 8 5 3 2 4 8 19 27 24 24 27 27 26 27 27 27 25 24 24 23 21 19 17 16 16 14 13 12 11 10 10 10 9 9 8 8 8 7 5 3 3 4 5 7 9 9 10 10 10 12 12 11 10 10 10 11 11 13 12 10 11 11 10 9 8 9 8
13 12 12 10 11 7 4 5 3 1 2 0 3 4 2 1 1 0 2 2 2 3 5 8 12 11 1 1 6 5 8 10 10 9 9 15 24 23 23 27 27 28 27 27 27 27 25 24 24 24 22 19 17 16 16 14 13 11 10 10 10 10 9 8 8 7 7 6 4 2 2 4 6 8 9 9 10 11 12 12 12 10 10 10 11 11 11 12 11 12 13 11 10 9 8 8 8
13 12 11 10 10 5 2 4 3 1 0 1 3 4 2 1 2 3 3 4 4 6 8 10 11 7 2 5 6 3 6 7 11 12 13 20 25 23 25 27 27 28 28 27 27 27 25 24 25 24 22 19 17 17 16 14 13 11 10 10 10 10 9 8 7 6 5 4 3 1 3 6 8 9 9 9 10 11 11 10 10 10 10 11 11 11 11 12 12 14 13 10 10 9 8 8 7
12 11 10 8 5 3 3 3 2 2 2 2 2 5 2 2 2 2 2 4 5 8 10 10 8 4 2 5 5 5 7 7 8 10 15 19 21 25 27 27 27 27 27 27 27 26 25 25 25 24 22 20 18 17 16 14 12 11 10 10 10 9 8 8 7 5 4 3 1 2 4 6 7 8 8 9 10 10 9 9 10 11 12 11 11 10 11 11 12 14 11 10 9 7 8 7 6
9 8 6 4 2 2 3 2 1 2 4 4 2 5 4 3 2 0 2 3 4 7 10 9 5 3 2 3 3 4 6 7 7 8 15 17 19 27 28 28 26 25 27 26 26 24 24 27 26 24 22 20 19 17 15 14 12 11 10 10 10 9 8 7 6 5 4 2 1 2 4 6 7 7 7 8 9 9 8 10 11 11 12 11 11 10 11 10 11 12 10 9 7 7 8 7 7
4 3 4 4 4 4 4 1 2 3 5 5 4 4 4 4 1 3 4 5 5 5 10 8 4 6 4 4 4 5 4 5 7 9 13 18 23 27 28 28 25 24 25 26 24 22 23 28 27 25 21 19 19 17 15 13 12 11 10 10 9 9 8 7 6 5 3 2 0 3 5 6 7 7 7 8 9 9 10 12 12 11 11 10 10 10 10 10 10 11 10 8 6 7 8 7 7
1 2 4 4 4 5 2 3 3 4 4 5 5 5 5 3 1 5 7 7 6 6 8 6 5 7 5 5 6 7 5 5 6 10 12 21 27 27 28 26 24 23 24 25 24 23 24 29 28 25 21 18 19 17 15 13 11 10 10 9 8 8 7 6 5 4 3 1 2 4 6 7 8 8 8 9 10 11 11 12 11 11 10 10 10 9 9 10 9 10 9 7 6 7 7 6 7
1 3 4 4 2 3 1 4 5 5 4 4 5 5 5 2 2 5 8 8 6 7 8 7 7 5 3 5 5 6 6 6 7 10 15 25 29 27 27 25 24 23 23 23 24 24 25 30 29 25 20 17 18 17 15 13 11 10 8 7 7 6 6 5 4 3 1 2 4 6 7 8 8 8 8 9 10 11 11 11 11 11 10 10 9 9 10 10 9 9 8 7 6 6 6 6 7
2 3 5 4 1 1 2 4 5 5 5 5 5 5 4 1 3 5 8 8 6 9 10 9 7 4 5 6 7 7 6 7 9 14 20 27 28 26 25 24 24 24 22 22 23 24 26 30 28 25 22 17 16 16 15 14 12 9 7 6 5 5 4 4 3 2 2 4 6 7 8 8 8 8 8 9 10 11 11 11 11 10 9 9 9 10 10 10 9 8 7 6 6 6 6 5 6
3 3 4 3 2 2 4 5 5 5 6 6 6 5 4 2 2 5 8 8 6 10 11 9 6 4 8 7 8 7 6 9 13 18 22 26 26 24 24 22 22 23 23 22 22 24 26 29 27 25 22 17 14 15 15 14 12 10 8 6 5 4 3 3 3 3 4 5 7 8 8 8 8 9 9 10 11 11 11 11 11 9 8 8 9 10 10 10 9 8 7 5 5 5 5 6 6
4 2 4 3 2 4 5 6 6 6 6 6 6 6 5 2 2 6 9 8 7 8 10 8 6 6 8 7 7 6 9 12 15 20 23 25 24 23 23 21 20 21 23 23 22 23 25 26 25 24 22 17 14 14 14 14 13 11 9 6 5 5 4 4 4 4 5 6 8 9 9 9 9 9 10 11 11 11 11 11 10 8 8 9 10 10 9 9 9 7 6 5 5 6 6 7 7
3 2 4 2 5 5 5 6 6 6 7 6 6 6 4 1 1 7 9 9 8 8 10 7 7 9 7 6 7 9 12 14 17 21 23 24 22 21 21 21 20 20 21 22 21 21 22 23 23 22 20 17 15 14 14 13 13 11 9 7 6 6 5 5 5 5 6 8 9 9 9 9 9 10 11 11 10 11 11 10 9 8 8 9 10 9 8 8 8 7 6 6 7 7 7 8 9
4 4 4 4 5 5 5 6 6 5 6 6 5 4 2 1 3 6 7 8 8 9 9 6 8 7 5 8 9 11 14 16 19 21 23 22 21 21 20 20 20 19 20 21 19 19 20 22 22 20 18 16 14 14 13 13 12 11 9 8 7 7 6 6 6 6 8 9 9 10 9 9 9 10 10 10 10 10 9 8 7 8 9 9 8 7 7 7 7 7 7 8 8 8 8 9 10
5 5 4 3 4 5 6 5 6 6 5 6 6 3 1 2 4 4 5 8 7 6 7 7 8 5 6 10 9 13 15 18 21 22 23 21 21 20 19 20 19 19 20 20 18 18 19 20 20 19 17 15 14 13 13 12 11 10 9 8 8 7 7 7 7 8 9 10 10 10 10 9 9 10 10 10 9 8 7 6 7 8 8 7 7 7 7 7 6 7 8 9 9 9 9 9 10
5 5 4 2 4 5 6 5 6 7 6 6 6 3 2 2 2 3 3 6 5 4 6 8 7 3 6 8 9 15 17 20 23 22 22 20 20 20 19 19 18 18 19 19 18 17 18 17 17 19 17 14 13 12 12 11 11 10 9 9 8 8 7 8 8 9 10 10 10 9 8 8 9 9 9 9 8 7 6 7 8 8 7 7 7 7 7 7 7 7 9 9 9 9 9 9 10
5 5 4 2 5 5 6 6 7 7 6 6 6 2 2 3 2 3 3 4 5 5 5 6 6 1 3 9 14 18 19 22 23 22 21 19 19 19 19 18 17 18 18 17 17 16 17 17 17 18 18 14 12 11 11 11 11 10 9 9 8 8 8 9 9 10 10 9 8 7 7 7 8 8 8 8 7 6 6 7 7 6 7 7 7 7 7 7 7 8 8 8 9 9 9 7 7
4 5 2 4 6 7 6 7 7 6 6 6 4 1 2 4 1 2 3 3 6 7 5 5 4 1 5 13 18 21 22 23 23 23 22 20 19 19 18 18 17 18 17 17 16 16 15 16 17 19 18 15 12 12 12 11 10 9 9 8 8 8 9 9 8 8 7 7 7 7 6 6 7 7 8 7 6 6 6 6 6 6 7 7 7 8 8 8 8 8 8 9 8 9 9 8 8
4 4 2 5 6 7 6 8 7 4 5 5 3 2 1 3 3 3 4 4 6 6 5 5 4 4 10 15 18 21 23 24 23 23 23 21 20 19 18 17 17 17 17 17 15 15 14 15 17 18 18 16 13 12 11 10 9 9 8 7 7 7 8 7 5 5 5 6 7 7 6 6 6 7 6 5 4 5 5 5 6 7 7 8 8 8 8 8 8 8 8 8 8 9 11 10 10
3 3 3 6 7 6 5 6 4 4 5 4 2 2 2 3 5 4 4 6 7 6 5 5 7 9 13 17 19 22 23 23 23 23 23 22 20 19 18 17 17 16 16 16 15 15 14 14 16 17 17 16 14 12 10 10 9 8 6 6 6 6 6 5 4 6 6 7 8 7 6 6 5 5 4 4 4 5 5 5 5 6 7 8 8 8 9 9 8 9 9 8 9 12 12 10 10
2 3 3 7 8 5 4 5 2 3 2 2 3 4 3 5 6 5 4 6 6 5 5 7 8 12 16 19 20 21 22 22 22 22 22 21 19 19 18 17 16 16 15 15 14 14 14 14 15 16 15 15 14 12 10 10 9 7 6 7 6 5 5 5 6 7 8 9 8 6 5 5 4 3 3 3 4 4 4 5 7 7 9 10 10 9 10 10 10 10 11 11 11 11 10 10 10
3 3 4 7 7 5 6 5 2 0 1 1 3 4 5 7 7 6 6 5 5 6 7 8 9 14 18 19 21 22 22 22 21 21 21 20 19 18 17 16 16 15 15 14 14 14 14 14 15 16 15 15 14 12 10 10 8 7 7 7 6 6 6 6 6 8 9 8 6 4 4 3 2 2 3 3 3 4 5 7 7 8 9 9 10 9 9 9 9 10 10 11 10 10 10 10 11
4 2 4 7 7 7 6 6 2 2 3 2 3 4 7 9 7 8 8 5 4 6 9 9 9 14 18 20 22 22 21 21 20 20 20 19 18 17 16 16 15 15 15 14 14 15 15 14 15 15 15 14 14 12 10 10 8 8 7 7 7 6 7 7 7 8 8 6 3 2 2 1 2 3 4 3 4 5 6 6 7 7 8 8 9 9 8 9 9 9 10 11 10 10 11 11 11
3 1 4 8 8 8 9 6 2 4 4 4 4 4 8 10 8 9 11 6 4 6 9 9 10 13 16 20 21 21 21 20 19 19 19 18 18 17 16 16 16 16 15 14 14 15 15 15 15 14 14 14 13 12 11 9 9 8 8 7 7 6 7 7 7 7 5 3 1 0 0 1 2 3 3 3 4 5 5 6 7 7 8 8 8 8 9 9 9 10 10 11 11 11 12 11 12
4 4 6 11 10 10 10 7 4 5 5 4 3 5 8 8 7 10 12 8 5 7 10 10 11 14 16 19 20 19 19 18 18 17 17 17 17 16 16 15 15 15 15 14 14 15 15 15 15 14 13 14 13 12 11 9 9 8 7 7 6 7 7 6 6 5 3 2 1 1 1 1 2 2 2 3 4 4 5 6 6 7 7 8 8 9 9 10 10 10 11 12 12 12 12 12 12
3 7 10 13 12 11 10 8 5 5 5 4 5 6 6 4 5 8 11 9 7 9 13 12 13 16 17 18 18 18 18 18 17 16 16 16 16 16 15 14 14 14 15 14 14 14 14 14 14 13 12 12 11 10 9 8 8 7 6 6 6 8 7 6 5 3 3 2 2 1 1 1 1 2 2 2 3 4 5 6 6 7 7 8 9 9 9 10 11 11 12 12 12 13 13 13 13
3 11 13 15 14 12 9 6 5 6 4 5 7 5 5 4 3 5 8 10 10 12 15 15 16 17 17 18 17 17 18 18 17 17 16 15 15 16 15 14 14 14 14 14 14 13 14 14 13 12 11 11 10 9 9 9 8 6 6 6 7 8 7 6 4 3 3 3 4 3 2 2 1 2 2 2 4 5 5 6 6 7 7 8 8 9 10 10 11 11 12 13 13 14 13 13 14
10 14 15 14 11 7 5 2 3 6 4 7 6 4 5 5 2 2 8 12 12 14 16 16 17 18 18 18 17 16 17 18 17 17 17 16 16 16 16 15 14 14 14 14 14 13 13 13 12 12 12 11 10 9 9 8 7 6 6 6 7 8 7 6 4 3 4 4 5 4 2 3 2 1 2 3 4 5 5 6 6 7 7 8 8 9 10 10 11 11 12 13 14 14 14 14 14
14 14 13 8 2 2 3 3 5 5 4 6 5 4 6 5 2 3 10 14 14 16 18 17 17 18 18 17 17 16 16 17 17 17 18 17 16 16 16 15 15 14 14 14 14 13 13 13 12 12 12 11 10 9 8 7 7 7 7 7 7 7 7 5 4 4 5 5 6 4 3 3 2 1 2 3 4 5 5 5 6 7 7 7 9 9 10 10 10 11 12 13 14 14 14 15 16
14 10 9 2 6 2 5 5 6 4 3 6 5 3 5 6 3 5 11 14 14 16 17 17 17 17 18 18 17 16 16 17 17 17 18 18 16 16 16 16 15 14 13 14 13 13 13 13 12 12 12 11 10 9 8 7 7 7 7 7 7 7 6 5 5 5 5 6 5 4 4 3 2 1 2 3 4 5 5 6 6 6 7 8 9 9 9 10 11 12 13 14 16 16 17 18 19
10 6 6 3 6 3 5 5 6 3 3 8 6 1 3 6 6 7 11 14 15 15 16 17 17 17 18 18 17 16 17 17 17 17 17 17 16 16 16 15 15 14 13 13 13 14 13 13 13 12 12 11 10 10 9 8 7 7 7 6 6 7 5 5 5 5 5 5 4 4 4 3 1 0 2 2 4 5 5 6 6 6 7 8 9 9 9 10 11 13 14 15 16 18 19 20 19
5 3 4 3 2 3 5 4 5 2 4 9 6 0 2 6 8 8 11 14 15 14 16 17 17 17 17 18 18 17 17 17 17 17 17 17 15 15 16 15 15 14 13 13 14 14 13 13 13 12 13 12 11 10 9 8 8 6 6 6 6 6 5 5 5 4 4 4 3 5 5 3 2 1 2 3 4 5 5 6 6 6 7 8 8 8 9 10 11 12 14 14 15 18 20 21 20
3 2 2 1 1 4 6 4 2 1 4 9 6 1 3 6 8 9 11 13 14 13 15 17 17 17 17 18 18 16 17 17 16 16 17 17 16 15 16 15 16 15 13 13 13 14 14 13 14 12 12 12 11 10 10 9 8 7 6 6 6 6 5 4 5 4 4 4 3 4 5 4 3 2 3 3 4 5 6 6 7 7 8 8 7 8 9 10 11 12 13 15 16 18 20 22 24
1 3 1 2 3 2 4 4 2 2 4 9 7 3 2 5 8 10 11 14 14 12 13 16 16 17 18 17 17 16 16 17 17 17 17 17 16 15 15 15 15 15 14 13 13 14 14 14 14 12 11 12 11 11 10 9 8 7 7 6 6 6 5 4 5 5 4 4 3 4 4 3 2 2 3 4 4 4 6 6 7 8 8 7 7 8 8 10 11 12 14 15 16 20 23 24 25
1 4 3 3 4 4 1 4 3 1 2 5 7 5 2 6 9 10 12 14 14 12 12 15 16 17 17 17 17 16 16 17 18 18 18 17 16 15 15 15 15 15 14 13 13 14 14 14 14 14 12 11 12 12 11 10 8 8 7 6 6 7 5 5 5 4 4 4 3 4 4 2 1 1 2 4 4 4 5 6 7 8 7 6 7 7 8 10 11 13 15 16 18 24 28 26 23
5 5 4 4 5 4 3 3 2 1 4 3 5 5 1 6 9 10 12 14 14 13 12 14 15 16 17 17 18 17 16 18 18 17 18 17 16 15 15 14 14 14 14 13 13 13 13 13 13 15 15 12 12 13 12 11 9 8 7 6 6 6 6 6 5 5 4 4 4 4 3 2 1 1 3 4 5 5 6 6 7 7 6 6 7 7 9 10 12 15 17 18 23 28 27 23 21
7 7 6 7 6 4 4 5 4 4 5 4 3 4 2 6 8 9 12 14 14 13 12 13 14 16 17 17 18 17 17 17 17 17 18 17 16 16 15 14 14 14 13 13 14 13 13 14 14 16 17 14 13 13 14 12 10 8 7 6 6 6 6 6 5 5 4 4 5 5 3 3 1 2 4 5 6 5 5 6 6 5 6 6 6 7 9 11 14 17 19 21 24 25 23 20 19
7 7 6 7 6 4 4 4 3 4 6 2 1 5 3 4 8 9 12 14 14 13 13 13 15 16 17 18 18 18 18 17 16 17 18 17 17 16 15 14 14 14 14 14 14 13 13 14 14 15 17 16 14 14 14 13 11 9 8 7 6 5 6 6 5 5 5 5 6 6 4 2 1 3 5 6 6 5 4 4 4 5 5 5 6 8 10 13 16 18 20 22 21 20 22 18 20
7 7 6 6 5 3 3 3 2 2 5 2 2 6 3 4 6 8 11 12 13 14 14 14 16 16 18 20 19 18 18 16 17 18 18 18 18 17 16 15 15 15 15 15 14 13 13 13 13 14 16 17 16 15 15 14 11 9 7 6 6 5 6 6 5 5 5 6 6 6 3 1 2 4 5 5 5 4 3 3 4 4 5 6 7 9 12 15 17 19 20 21 20 19 19 17 20
7 5 5 5 2 3 0 2 0 2 4 3 5 7 1 5 5 7 9 11 11 13 14 14 16 16 17 20 20 19 19 18 18 19 19 20 20 19 17 16 15 16 16 15 14 14 13 13 13 13 15 17 17 16 15 13 11 10 8 6 6 5 4 6 6 6 7 6 5 4 2 0 3 4 5 5 4 3 2 2 2 4 6 7 8 11 14 15 16 17 18 21 21 19 19 17 18
6 5 5 3 3 5 1 3 2 5 4 4 8 7 2 5 4 5 8 10 10 12 13 13 14 16 17 19 20 21 21 20 20 20 21 21 21 20 19 17 16 17 17 16 15 15 14 13 13 14 15 16 16 17 16 13 12 12 10 8 8 8 7 8 8 8 8 6 5 4 2 2 3 4 4 4 3 3 2 2 2 4 6 7 9 12 13 14 15 16 20 24 23 22 22 18 15
5 5 6 5 5 7 5 3 6 6 3 3 7 7 3 5 5 5 7 9 10 11 13 14 14 15 16 17 20 22 22 22 21 20 21 21 22 21 20 19 18 18 18 17 16 15 15 14 14 15 16 16 16 17 17 15 13 13 11 9 8 9 9 8 7 7 7 6 5 3 2 3 3 4 4 3 2 2 3 2 3 3 6 8 9 11 12 14 14 14 21 25 22 23 26 20 14
5 2 2 6 7 7 7 6 6 4 3 2 4 6 1 5 5 5 6 8 9 11 13 14 15 16 16 18 20 22 22 22 22 22 21 21 22 22 21 20 19 19 19 18 17 16 15 15 15 17 17 17 15 15 16 15 14 12 11 9 7 7 8 8 8 7 7 6 5 3 2 2 3 3 4 3 2 1 2 2 2 4 6 8 9 11 12 13 13 15 22 24 22 25 25 18 13
3 4 4 6 7 7 7 6 4 3 2 1 2 6 2 3 4 4 7 8 9 11 12 14 16 16 18 19 19 20 22 22 23 26 25 23 23 22 22 22 21 20 19 18 17 16 16 15 16 18 18 18 16 16 16 15 13 12 11 9 7 7 7 8 9 8 6 6 4 3 2 2 2 3 3 3 1 0 1 1 3 4 6 8 10 11 12 12 14 19 24 23 24 25 21 16 13
2 5 5 7 7 8 7 6 5 2 4 3 3 4 5 1 4 4 6 7 8 10 12 13 16 17 18 20 19 20 22 23 24 25 26 25 24 23 23 23 22 21 20 19 18 17 17 16 17 18 20 20 18 17 17 15 14 13 11 10 8 7 6 7 8 8 7 6 5 3 2 2 2 2 2 1 2 1 2 2 3 5 8 10 11 11 14 17 18 21 24 25 25 23 18 15 14
3 5 7 8 8 8 7 6 4 2 4 4 2 1 5 2 5 5 5 6 7 10 13 14 16 18 19 20 21 21 21 23 23 23 25 26 25 24 23 23 22 22 21 20 19 18 17 17 17 18 20 21 20 18 17 15 14 13 12 10 9 8 7 6 7 8 8 8 6 4 3 2 1 1 1 1 2 3 3 3 5 7 9 12 12 12 17 21 20 21 23 24 23 19 15 14 15
5 8 10 9 8 7 5 6 4 2 4 4 1 2 5 2 3 5 4 4 4 6 10 13 17 19 19 19 21 22 22 23 24 23 24 25 25 25 24 23 22 22 21 20 19 18 18 18 18 19 20 21 20 19 17 16 15 14 13 12 10 9 8 7 7 8 9 10 7 4 3 2 1 1 2 3 3 4 4 4 6 7 9 12 14 15 19 20 20 22 24 23 20 16 14 14 15
9 10 10 8 7 5 4 4 3 4 5 2 1 2 5 3 1 2 2 1 1 1 4 9 16 19 19 19 20 21 23 24 24 24 23 24 25 25 24 24 23 22 22 21 20 19 18 19 19 19 20 20 20 18 17 16 15 14 13 12 11 10 9 8 7 7 8 9 7 5 4 3 2 1 2 3 4 4 5 5 6 7 10 13 16 18 18 18 18 22 24 22 18 15 13 14 15
8 7 6 6 5 4 5 5 4 5 4 1 1 2 4 3 1 3 3 3 1 1 2 5 13 18 20 19 19 20 22 24 25 25 24 24 25 26 25 24 24 23 22 22 21 20 19 19 19 20 20 20 20 19 17 17 16 15 14 12 11 10 10 9 8 7 7 8 7 6 5 3 2 2 2 2 2 3 5 6 7 10 12 14 16 16 16 16 18 21 22 20 16 13 13 14 15
6 6 5 5 4 4 5 5 4 5 3 1 1 2 3 2 2 4 4 4 3 2 2 2 8 16 19 19 19 19 21 23 24 25 25 24 26 28 27 25 25 24 24 23 22 21 20 19 19 20 20 20 20 19 18 17 16 15 14 13 11 10 10 10 9 8 8 8 7 6 5 4 3 3 2 2 2 3 4 7 9 11 12 14 15 15 15 16 18 21 21 17 14 12 12 14 15
7 6 4 4 4 4 5 4 3 4 3 2 1 2 3 2 2 3 5 6 5 3 2 2 5 11 17 19 19 19 20 22 23 24 24 24 27 30 29 27 26 25 25 25 24 23 21 20 20 20 20 20 20 19 18 17 16 15 14 13 12 11 10 10 10 9 8 9 8 8 6 4 4 3 2 2 2 3 4 7 9 10 12 13 13 13 15 17 19 21 19 15 13 11 12 14 14
5 2 4 5 4 4 4 3 3 3 2 2 2 2 3 0 3 3 4 5 4 3 3 4 5 8 13 16 18 18 19 20 22 23 24 24 28 32 30 28 27 26 26 26 25 24 23 21 21 21 21 21 20 19 18 17 16 16 15 14 13 12 11 10 11 11 10 10 9 8 7 6 5 3 3 3 3 4 5 7 9 10 11 12 12 13 16 18 19 20 17 13 12 11 12 13 12
3 1 5 5 3 3 4 3 3 4 3 2 3 2 1 1 2 2 1 3 4 3 4 6 7 8 10 13 16 17 18 19 21 22 24 24 27 31 31 29 28 27 27 27 26 25 24 23 22 22 22 22 21 20 18 17 16 16 16 16 14 14 12 11 11 12 13 12 10 9 8 7 6 4 4 4 4 4 6 7 8 10 10 11 12 14 16 18 20 20 16 13 11 10 11 11 11
1 4 6 1 3 6 6 2 2 5 5 2 2 2 1 1 2 3 3 4 5 4 4 6 7 9 10 11 14 16 17 18 20 21 23 23 25 28 30 29 28 28 28 28 27 26 25 24 23 23 23 22 22 21 19 17 17 17 17 17 16 15 14 12 11 12 13 13 11 10 8 8 7 5 4 4 4 5 5 5 8 9 9 10 11 13 15 18 19 18 14 12 10 9 10 11 11
3 4 1 2 1 5 5 3 3 5 5 3 2 1 1 2 3 4 3 3 5 5 4 5 6 8 9 9 11 14 15 17 18 19 20 22 23 26 29 29 29 30 30 29 28 27 26 25 24 24 24 23 23 22 20 18 17 17 18 17 17 16 14 13 13 12 13 13 12 11 10 9 8 7 6 5 5 6 4 4 7 9 8 8 10 12 15 17 19 17 13 11 9 8 9 10 10
8 6 4 2 4 3 3 3 4 4 4 3 4 1 1 1 3 3 2 3 5 6 4 4 4 5 6 7 9 11 13 15 16 18 19 20 22 25 27 29 29 30 30 29 28 27 26 26 25 25 24 24 24 23 22 20 18 17 17 17 17 16 15 15 14 13 13 14 13 12 11 10 8 7 8 6 5 5 4 4 7 8 7 7 9 12 14 17 18 16 12 10 8 7 8 9 10
8 7 5 4 3 2 3 3 4 4 3 2 3 2 1 2 3 1 3 4 5 6 5 3 3 4 4 5 7 10 11 13 15 17 18 19 21 23 25 28 28 28 28 29 29 28 27 26 26 26 25 24 25 24 23 21 19 17 17 16 16 17 17 16 15 14 13 14 14 12 11 11 9 8 8 7 5 5 4 5 7 8 6 6 9 11 14 16 17 14 11 9 8 6 7 8 8
6 7 7 6 3 3 3 3 3 4 3 2 2 2 2 3 4 1 3 4 4 6 5 4 5 4 4 4 6 8 10 11 12 14 16 17 19 20 22 25 27 27 26 27 28 28 28 27 26 26 27 25 25 25 23 22 21 19 17 17 16 17 18 16 15 14 14 14 14 13 12 11 10 9 9 8 6 5 4 5 7 7 5 5 8 11 13 15 16 13 9 7 6 6 6 7 7
5 6 6 6 5 3 3 4 4 2 4 3 1 3 2 4 3 1 4 4 4 6 6 5 6 5 4 4 5 6 7 9 10 11 12 14 17 18 20 23 25 27 26 26 27 27 27 27 26 26 27 26 26 26 25 23 22 20 19 18 17 18 18 16 14 14 15 15 15 14 12 12 11 11 11 9 7 6 5 5 6 5 4 5 7 10 13 15 15 12 8 7 6 5 5 6 7
Wind_Direction
134 143 147 149 149 155 168 192 245 216 235 269 85 86 78 8 32 173 130 132 145 112 101 124 144 147 145 152 144 82 59 101 64 83 118 114 144 151 151 153 158 157 157 160 161 158 156 155 155 161 165 163 163 165 169 166 160 155 151 148 146 144 142 144 144 145 145 146 141 120 71 33 19 14 9 9 8 8 10 11 17 17 17 17 19 22 22 24 17 11 17 17 21 23 21 22 26
138 147 145 145 151 162 182 208 257 209 227 210 77 66 104 160 234 290 84 119 126 112 128 137 146 148 124 106 144 112 71 65 60 81 104 129 143 148 153 155 157 156 156 160 161 159 159 159 158 161 164 162 160 161 165 164 159 156 154 152 150 150 150 149 148 147 149 150 146 127 51 20 12 8 4 6 4 6 8 8 9 10 16 15 18 21 21 22 13 22 23 16 22 24 26 26 26
144 144 145 148 162 192 244 220 262 307 255 50 79 87 148 143 16 357 42 76 106 126 132 134 142 144 148 142 146 130 90 85 83 89 115 136 145 151 155 155 156 157 157 159 161 161 161 163 162 163 165 162 157 157 162 161 158 157 157 157 156 158 158 155 154 154 151 147 138 80 21 11 5 3 1 2 2 5 4 1 3 9 15 12 17 16 18 19 16 34 30 19 28 24 24 25 26
140 141 151 157 177 216 240 230 285 324 37 29 76 87 70 46 19 351 70 80 111 132 134 137 137 145 181 135 126 104 93 115 104 95 129 144 151 154 153 154 156 157 157 159 161 163 164 167 166 165 166 162 157 156 159 160 160 160 159 159 161 164 165 165 162 159 150 142 116 33 10 3 360 0 360 1 2 2 359 359 5 9 10 9 12 9 17 23 26 41 37 26 32 26 26 23 22
134 144 162 194 249 237 249 259 327 344 28 3 22 61 29 29 38 196 138 113 128 141 146 147 130 157 157 86 108 113 98 115 118 114 136 148 153 154 153 154 156 157 159 159 161 164 166 170 169 166 165 162 160 158 158 159 159 158 158 160 163 167 168 166 163 160 156 155 110 11 358 355 355 0 360 359 358 355 359 6 8 6 6 4 4 8 20 28 34 45 45 37 33 30 31 22 24
130 172 218 252 264 262 266 289 45 49 41 358 358 25 16 25 30 181 158 129 137 146 154 156 136 158 139 99 89 79 98 108 123 131 137 149 153 155 154 154 155 157 160 159 162 166 169 174 171 166 165 162 164 162 158 157 156 155 156 159 162 164 162 162 162 166 171 177 342 352 350 352 355 359 357 354 352 354 5 8 5 1 1 358 359 12 23 29 37 48 52 45 32 32 33 23 25
177 242 231 248 243 244 280 52 46 58 50 8 4 357 14 23 280 184 165 145 147 147 161 170 160 161 127 137 117 75 98 97 119 139 145 149 151 155 153 153 154 157 161 160 165 170 172 177 173 168 165 163 167 166 162 160 157 156 157 159 161 162 163 167 171 178 188 243 338 349 350 352 353 354 351 349 350 355 3 3 358 354 355 356 1 14 23 29 37 50 58 50 32 29 33 28 27
304 282 242 260 225 210 322 52 52 51 51 36 29 358 11 24 206 186 175 157 154 153 163 168 178 182 114 152 137 92 102 98 120 138 145 148 150 155 152 152 154 157 161 161 167 171 174 179 175 171 169 166 169 170 169 168 165 162 159 161 163 167 172 176 180 192 229 329 341 347 348 348 346 344 346 346 349 355 357 353 350 350 354 357 5 16 22 27 34 45 53 45 29 19 14 17 28
315 282 252 260 250 167 42 57 58 48 49 52 45 20 26 77 177 190 175 148 146 152 158 165 184 186 125 141 115 104 105 105 127 134 143 148 151 154 151 154 157 159 160 161 166 169 176 178 176 176 177 173 173 176 177 177 176 171 166 167 170 177 182 190 206 241 299 328 336 341 341 339 337 338 342 344 350 352 349 344 344 348 352 356 8 19 22 26 32 37 39 30 17 5 353 354 11
293 277 273 264 278 53 57 55 61 56 47 57 54 27 32 86 167 172 155 136 145 148 149 160 177 158 131 126 105 112 116 121 133 136 144 147 151 153 151 154 158 161 161 163 165 169 176 177 177 179 182 183 183 185 184 185 185 184 182 178 184 195 208 226 252 277 302 319 327 330 331 329 332 337 342 346 349 346 341 336 338 341 346 1 14 20 23 31 39 42 39 24 8 358 349 351 352
295 275 272 275 21 43 43 45 62 64 48 59 60 29 26 55 131 138 135 132 145 142 142 158 166 148 131 115 108 120 122 130 137 139 146 148 151 152 150 152 155 159 161 164 167 172 175 174 177 179 183 188 192 193 191 192 192 195 196 197 206 215 227 244 264 280 297 310 315 319 322 326 332 339 344 344 341 336 332 330 331 336 350 13 21 23 29 40 47 43 33 18 8 360 351 347 342
320 310 273 14 43 37 37 40 51 68 57 46 50 28 19 332 122 131 137 137 148 147 151 168 155 148 143 122 121 124 125 136 140 143 149 149 150 150 150 152 154 156 158 162 168 175 176 174 176 177 182 189 194 196 196 196 197 202 204 213 226 228 239 251 264 276 290 300 307 314 319 328 335 338 339 335 332 329 328 329 334 348 9 21 25 30 40 46 44 33 23 14 6 358 350 343 340
328 334 314 41 45 35 40 39 39 65 62 50 63 30 1 326 50 113 134 137 152 153 156 161 145 158 148 122 129 132 131 138 143 145 150 150 150 150 150 151 153 154 156 160 165 173 178 177 176 178 182 188 191 194 196 198 201 207 213 223 230 233 246 255 265 277 288 300 308 316 322 329 333 332 330 326 327 327 329 338 350 5 17 23 30 35 41 38 29 24 18 13 5 356 350 346 348
339 343 323 41 56 42 33 34 35 42 51 58 79 49 14 55 52 99 132 138 146 143 148 155 154 175 143 127 138 142 137 141 145 146 150 152 150 150 150 150 152 153 155 158 162 169 179 181 182 184 183 185 187 190 195 198 203 210 217 223 229 238 250 260 271 285 295 304 311 317 322 326 327 323 320 323 329 332 341 357 8 13 15 28 42 38 33 27 21 17 10 7 1 354 353 357 6
339 329 291 32 59 53 31 25 30 35 40 47 73 69 70 86 99 112 116 133 128 115 136 159 164 178 160 158 155 146 142 144 146 147 150 150 149 151 149 150 153 154 156 158 160 165 174 180 188 190 186 184 185 189 194 196 200 205 213 221 233 244 254 268 279 291 299 305 310 314 319 320 320 318 321 328 335 343 356 9 16 18 23 40 44 37 31 22 17 11 5 1 357 1 5 8 20
327 304 274 48 53 52 36 25 28 35 35 42 79 98 95 99 127 115 96 114 121 128 132 155 165 160 155 150 144 145 143 144 147 147 149 149 148 150 149 151 154 155 158 160 161 163 168 175 187 195 190 185 185 192 196 194 198 204 214 225 237 249 260 273 284 294 302 308 310 312 316 317 316 319 326 335 344 352 3 17 26 31 37 42 37 34 30 22 17 9 5 4 7 10 6 14 31
294 273 292 51 49 48 35 25 31 36 39 43 83 117 104 111 124 117 128 122 124 142 137 136 146 41 105 125 134 140 143 146 148 148 149 151 151 151 152 155 156 157 161 165 166 165 168 173 184 195 194 189 187 193 200 198 203 211 219 231 242 256 270 280 291 301 308 310 309 314 315 311 315 321 328 338 350 355 11 28 39 43 40 39 34 29 25 21 16 10 11 13 16 9 1 16 22
280 267 12 47 40 43 24 19 32 31 46 44 63 107 104 129 155 148 148 140 131 142 140 128 116 99 116 124 132 139 144 149 150 152 153 155 156 156 156 158 161 162 165 169 171 170 171 174 182 189 192 192 190 195 202 203 210 216 222 238 251 264 277 288 296 299 299 296 299 309 310 306 313 318 328 344 356 5 29 44 45 41 35 33 29 23 21 19 15 16 16 10 12 12 10 14 6
299 309 25 53 29 34 25 13 27 14 47 71 71 109 110 131 157 177 170 149 145 145 141 139 128 123 127 131 137 143 148 151 153 157 157 159 161 160 160 162 165 166 169 172 173 175 175 176 179 180 186 191 191 195 201 208 216 216 223 238 252 261 269 278 282 285 291 291 294 303 309 310 313 320 336 356 14 26 42 49 41 31 28 27 22 21 19 15 18 18 12 10 13 14 10 6 359
325 327 24 53 13 15 45 13 359 5 45 112 103 123 130 140 159 180 177 157 165 172 162 164 152 140 138 139 144 149 152 155 157 160 161 162 163 163 164 166 168 169 170 172 173 177 178 176 176 177 185 189 190 196 200 209 217 215 223 235 242 253 261 270 278 284 290 292 296 305 311 310 316 336 355 16 29 28 24 24 21 15 15 18 19 21 13 7 14 11 4 9 12 8 2 357 355
316 312 6 26 351 355 39 11 333 252 225 124 120 145 142 149 162 171 168 164 184 197 186 181 167 152 148 148 153 156 156 159 161 163 165 164 163 164 166 168 170 171 169 172 173 174 178 175 173 181 189 190 193 195 198 208 215 214 220 230 235 246 259 269 282 288 292 297 300 303 301 304 327 1 15 33 33 20 17 13 8 7 8 9 12 14 6 3 9 5 0 5 3 358 358 353 349
293 282 354 353 337 338 357 350 307 195 205 182 165 156 136 145 168 179 168 174 203 200 195 191 173 160 157 157 158 159 160 162 163 167 167 165 165 164 166 167 168 170 170 173 174 173 176 173 173 183 189 191 196 196 201 209 215 219 222 233 241 253 268 277 289 291 294 301 305 301 294 319 354 359 0 14 25 18 14 7 2 5 6 5 7 9 8 7 6 4 2 2 359 355 352 347 345
286 301 352 340 333 318 322 324 252 202 208 198 184 149 142 153 170 183 178 179 194 189 193 190 174 164 160 160 160 161 163 164 167 169 168 167 168 167 167 167 168 171 172 172 173 174 174 175 176 182 187 191 195 197 201 208 215 222 225 236 246 258 272 284 293 291 295 302 317 74 147 345 343 344 344 355 18 16 2 1 1 3 6 6 7 10 9 9 7 5 3 360 357 352 349 347 344
268 316 339 333 324 307 309 307 255 218 221 199 173 162 168 169 158 177 187 178 149 167 181 177 166 161 162 164 163 164 165 167 171 170 170 171 171 171 169 169 170 172 174 173 173 176 177 180 182 182 188 192 195 199 200 206 214 220 231 246 256 262 272 283 283 283 296 304 319 104 124 48 346 341 350 358 8 5 358 0 360 2 7 7 10 11 7 8 8 3 360 358 356 352 349 348 344
244 312 322 321 316 312 309 296 260 228 221 186 177 176 176 170 139 167 185 175 149 157 166 162 160 160 166 170 166 166 168 170 174 173 174 175 174 174 173 172 172 174 176 174 174 178 178 184 189 188 191 192 194 199 199 207 217 221 237 252 258 264 273 274 264 271 288 290 297 292 131 117 350 344 352 4 358 358 1 1 3 5 7 8 10 8 5 4 3 0 359 357 354 351 349 347 346
338 313 312 312 311 320 320 299 244 213 201 182 181 172 165 156 143 164 167 166 157 156 160 158 160 163 170 174 171 171 172 175 177 176 176 176 177 178 178 177 176 177 176 176 176 177 180 186 190 190 193 193 191 197 200 209 222 228 240 250 257 266 269 259 250 253 268 278 284 268 198 166 137 6 345 359 357 357 2 3 6 4 5 6 5 4 2 358 358 359 357 355 353 350 348 346 345
320 307 305 302 307 332 340 351 170 183 183 187 183 155 159 159 174 176 153 159 157 155 159 160 163 168 172 176 177 177 177 179 179 178 178 178 181 181 181 181 179 179 176 178 179 178 182 185 188 191 196 196 190 197 209 216 227 234 241 246 256 264 257 247 245 249 255 259 261 251 206 173 141 37 338 355 354 356 3 3 2 360 2 360 360 1 356 354 358 357 354 353 350 348 347 346 343
307 304 305 293 254 34 19 74 138 167 172 185 188 150 158 172 198 135 145 157 158 157 160 164 169 170 172 175 178 182 182 181 181 182 183 183 184 184 185 183 181 180 178 181 181 183 184 183 188 194 198 201 192 198 216 222 230 239 245 246 248 251 245 237 241 252 256 253 248 233 200 189 152 68 335 351 359 360 1 0 358 355 356 354 355 356 353 355 357 353 352 351 348 348 348 346 344
299 293 301 243 153 109 44 93 154 175 159 173 181 152 167 189 177 124 145 159 160 160 163 168 174 170 171 175 177 183 184 182 184 186 187 187 187 187 187 184 181 179 180 183 183 185 185 183 190 193 200 207 198 199 215 222 230 239 242 245 243 240 238 238 241 247 252 250 243 224 207 200 158 55 334 349 6 1 354 355 356 351 348 349 350 350 352 353 353 352 350 351 350 349 350 349 346
289 275 278 221 164 125 68 112 165 157 135 169 178 121 168 180 158 139 153 160 162 164 167 172 175 174 174 176 178 183 186 186 187 189 188 188 188 188 187 185 183 180 180 183 185 187 185 186 192 195 202 208 204 203 209 215 223 233 235 236 239 235 233 241 245 249 253 251 251 238 219 213 217 349 340 359 11 357 348 348 348 347 343 343 347 348 351 351 352 351 349 353 354 353 353 347 342
284 260 244 243 148 112 97 134 172 141 139 177 195 342 125 151 146 152 160 164 168 168 171 175 175 178 179 179 181 182 186 190 190 190 189 188 188 187 187 185 184 183 183 185 187 189 188 191 194 196 204 206 207 206 205 213 216 221 227 222 229 231 224 234 242 247 255 254 256 256 241 232 260 306 342 6 8 348 342 341 338 338 336 339 345 343 347 349 349 347 346 348 351 354 349 337 335
276 266 208 306 35 116 117 136 186 39 139 183 218 329 104 136 143 153 164 171 176 175 172 176 177 181 183 183 184 183 186 192 193 192 190 189 188 187 188 187 187 186 188 189 190 191 191 197 198 196 205 205 207 207 205 212 209 207 215 211 217 223 220 230 237 234 239 244 245 259 259 246 258 300 333 357 1 341 332 332 331 331 331 337 340 339 345 346 344 343 341 343 348 349 339 331 335
175 331 7 10 354 76 119 149 164 64 138 186 222 289 56 127 146 154 169 176 183 185 175 178 183 184 185 185 187 186 187 191 193 193 191 189 188 188 188 189 190 189 191 191 193 194 192 200 201 195 204 207 204 207 206 205 201 198 202 206 212 214 218 229 237 236 232 237 237 247 253 246 259 306 330 348 358 337 326 328 329 328 329 335 337 342 345 341 341 339 337 344 347 339 334 336 336
57 350 349 1 343 335 60 128 139 147 206 204 213 245 18 121 148 160 175 183 188 190 182 181 185 187 186 186 189 190 189 191 193 192 189 188 187 187 186 186 188 188 191 193 193 196 194 199 203 196 199 205 202 203 203 199 197 196 194 205 213 206 210 222 229 236 234 231 236 243 236 221 261 354 1 6 16 351 333 333 329 328 334 342 344 345 341 335 335 333 336 341 340 338 340 343 336
346 348 340 335 329 321 355 38 43 280 264 241 211 240 251 142 157 165 177 188 193 193 189 185 186 188 187 187 192 193 192 194 194 191 187 187 186 185 184 182 184 187 190 193 192 194 193 195 202 201 197 198 200 201 197 192 195 200 196 206 217 210 211 219 223 226 228 221 221 231 204 160 143 66 29 12 14 352 333 327 324 331 342 346 346 343 338 333 329 332 338 339 342 345 343 339 335
330 335 320 311 313 313 336 3 17 339 291 256 228 276 264 166 170 171 178 190 199 197 189 187 187 188 189 189 193 195 195 197 195 191 188 188 187 184 184 181 183 187 188 191 191 191 194 194 199 205 200 194 197 198 193 189 194 200 199 208 217 217 217 221 226 221 218 218 210 207 182 155 138 33 11 0 0 350 336 326 327 337 343 342 341 340 333 328 330 336 341 342 345 345 338 335 335
313 310 300 300 294 292 333 8 33 340 307 296 344 303 284 181 178 175 180 189 199 203 193 190 190 190 192 192 193 194 195 196 193 192 191 191 189 186 186 183 183 186 186 187 188 187 191 192 196 203 200 194 193 195 193 190 194 198 199 206 211 214 218 218 222 217 209 209 195 180 172 179 342 1 359 351 346 348 350 343 336 335 338 337 335 333 329 330 335 340 341 342 344 339 338 341 334
298 295 294 288 278 299 355 17 33 339 313 341 6 303 277 169 177 174 183 191 199 206 199 195 193 193 196 195 195 193 192 192 190 192 193 193 192 189 187 186 184 185 185 184 183 183 185 188 193 197 196 195 194 194 194 192 194 196 195 201 204 206 213 211 210 207 201 199 190 173 168 219 349 2 360 349 337 345 356 340 329 328 331 334 333 332 334 338 339 339 339 340 342 340 343 344 335
284 280 276 273 302 328 162 134 93 311 308 330 335 316 356 141 174 175 187 198 201 204 204 202 198 196 198 197 197 194 191 191 191 193 195 193 193 192 190 189 187 185 185 185 184 184 183 184 189 190 192 195 195 194 194 193 196 196 191 195 200 194 200 208 203 194 190 190 197 199 203 274 12 4 353 351 342 340 340 312 317 322 323 330 334 337 341 342 338 335 337 342 344 344 348 347 340
262 266 266 273 341 322 256 127 327 304 295 310 310 302 147 138 173 180 195 203 199 199 202 207 205 202 202 200 198 195 193 193 194 195 195 194 194 194 194 191 190 188 187 189 188 187 188 188 189 188 188 191 193 194 191 191 201 199 190 191 196 194 194 203 202 194 191 190 200 217 243 301 3 0 342 349 336 313 288 267 309 318 320 332 339 341 341 339 336 335 341 347 349 346 348 350 346
248 256 274 296 323 321 324 334 316 297 240 249 298 290 173 161 183 176 184 197 202 197 197 204 208 208 205 201 200 198 197 196 197 197 197 197 196 195 196 194 192 191 190 191 191 191 192 192 191 187 184 184 188 193 189 190 199 198 191 190 196 202 202 200 197 195 197 197 202 214 240 290 340 357 346 350 338 300 271 277 317 325 327 337 343 340 336 337 338 337 343 350 352 346 348 353 351
244 229 325 327 325 319 313 310 307 283 211 155 319 309 166 157 175 163 158 182 203 199 199 204 204 208 207 203 202 199 200 200 199 200 201 200 200 197 196 196 195 194 193 193 192 193 193 193 193 188 185 184 187 192 191 191 195 195 195 196 198 206 207 202 197 195 196 197 202 210 232 280 323 349 340 339 347 302 280 303 331 340 339 337 338 337 337 340 337 335 345 353 352 347 352 359 359
236 82 22 328 316 306 302 305 294 281 313 45 309 310 316 141 146 151 161 180 199 198 205 209 202 205 207 206 205 200 200 199 199 204 204 201 202 200 197 198 198 197 195 193 193 194 192 192 193 192 192 191 191 196 195 194 195 196 198 202 206 208 205 203 202 201 201 204 210 222 248 280 311 337 333 328 353 10 320 340 334 345 344 334 336 337 336 337 334 337 349 356 352 351 359 7 12
300 49 345 310 306 302 304 298 274 301 326 267 224 302 299 269 115 138 173 189 198 200 207 209 205 205 205 207 206 202 201 198 199 206 207 204 204 202 199 198 199 199 196 193 194 194 192 193 192 193 197 195 195 200 199 194 196 199 200 203 209 208 205 206 205 208 215 222 227 233 254 273 299 326 334 351 3 336 322 327 332 340 336 335 343 338 332 336 339 344 353 357 355 356 4 12 25
304 351 318 303 295 294 297 283 266 328 311 262 179 338 293 298 107 139 187 206 212 210 208 207 206 206 205 206 206 204 203 201 200 204 206 205 204 203 201 199 199 199 197 195 195 194 192 193 193 194 197 197 198 202 200 196 197 202 203 206 211 208 204 204 205 212 221 224 228 240 261 274 282 305 319 351 344 319 315 318 325 334 334 338 345 336 333 340 347 352 358 358 356 0 10 19 31
300 316 300 281 265 266 274 272 275 290 281 278 45 359 301 325 112 152 186 218 228 212 206 203 201 203 204 204 204 203 201 201 201 203 205 205 203 203 202 200 200 199 198 197 195 194 193 192 194 197 198 198 200 203 201 200 201 203 206 209 211 211 207 208 208 216 224 223 226 240 249 252 260 276 305 324 327 316 311 314 324 335 335 336 341 340 339 344 351 356 358 358 359 7 16 25 35
291 298 286 266 238 227 248 264 289 276 259 262 21 331 299 303 107 129 133 93 15 100 181 190 191 196 200 201 201 200 198 198 200 201 204 205 204 203 203 202 201 200 199 198 196 195 194 193 194 200 203 201 203 204 203 204 206 206 209 210 210 214 214 215 216 216 220 221 222 230 231 230 240 251 290 314 327 324 314 312 320 328 330 334 342 344 343 346 353 355 357 358 4 14 21 28 37
273 276 275 271 231 216 239 225 230 261 255 170 55 309 284 279 51 36 48 87 75 43 103 167 183 190 195 198 199 197 196 196 198 200 202 204 203 202 203 203 202 201 199 198 198 196 196 195 195 201 208 207 206 207 207 210 210 208 211 213 212 216 216 216 220 215 212 215 216 220 222 222 231 250 274 296 318 328 319 312 315 323 329 339 343 342 344 350 355 356 357 359 5 16 24 33 41
244 244 249 261 238 223 239 223 218 256 257 87 24 301 267 263 36 19 34 80 97 69 67 125 172 185 190 193 195 195 195 195 195 198 200 201 201 200 202 203 201 202 200 199 198 197 197 197 196 202 210 210 208 209 211 213 214 211 212 214 214 216 218 216 216 213 209 209 210 211 216 217 218 236 256 276 311 328 317 307 313 323 331 338 341 343 351 355 356 357 358 2 9 17 27 38 44
210 231 243 251 256 248 245 236 237 254 240 138 73 295 259 213 103 57 55 68 79 86 95 114 149 178 186 189 192 192 193 195 195 197 198 198 199 198 200 202 202 203 203 201 200 198 198 199 198 202 209 210 208 210 213 214 214 213 212 215 218 217 219 219 215 211 209 209 207 207 212 217 218 232 251 266 290 310 307 303 312 323 331 338 344 350 355 355 357 358 359 5 12 19 32 41 46
205 236 275 268 276 267 268 272 253 258 248 160 147 250 266 233 71 63 76 86 96 100 109 129 141 163 178 184 190 191 192 194 194 196 198 199 200 199 199 201 203 204 204 204 203 201 201 201 201 203 208 211 209 209 213 212 212 215 214 214 217 217 215 217 216 210 205 206 208 210 215 222 229 241 246 254 280 299 302 306 316 326 334 343 349 354 354 354 357 359 1 10 14 22 37 45 51
201 221 253 262 295 277 284 304 302 306 288 218 181 219 269 9 40 53 119 126 127 126 126 141 151 154 166 179 187 192 194 195 195 197 198 199 200 201 201 202 203 205 206 206 205 204 203 204 204 204 209 212 211 209 210 209 211 216 217 214 214 216 214 211 214 214 205 202 207 211 217 224 230 239 245 261 288 298 302 313 324 330 337 346 351 353 353 353 356 358 4 13 16 26 39 48 52
178 227 235 261 357 294 283 265 274 287 267 217 183 218 198 155 112 93 122 146 140 146 142 136 146 157 166 178 186 192 196 197 197 198 198 198 198 199 201 203 204 205 205 206 206 206 206 206 206 206 209 212 212 210 208 209 211 215 218 216 213 216 216 212 213 217 211 207 211 213 215 222 227 227 229 251 281 288 299 319 328 331 337 346 350 351 351 352 354 359 6 12 17 30 40 47 53
254 255 299 62 258 267 276 261 238 246 242 199 155 219 262 162 125 100 118 133 122 121 120 124 144 162 173 180 184 191 197 200 201 200 200 200 199 198 200 202 204 205 205 205 207 208 208 208 207 207 208 210 212 210 208 210 212 215 218 217 215 214 214 214 214 215 213 212 214 216 218 222 224 223 220 232 269 283 289 314 324 328 335 345 349 349 349 350 353 358 6 12 17 31 40 45 52
252 293 341 297 249 237 235 252 254 245 245 206 153 126 328 82 96 108 110 87 96 102 107 122 137 154 171 175 177 186 195 200 203 203 203 203 202 201 201 202 205 207 208 209 210 211 211 210 210 210 209 210 213 211 209 212 213 214 216 215 214 212 210 213 216 215 213 212 213 216 219 220 221 223 230 240 264 275 280 308 319 322 331 345 349 348 347 348 353 359 5 11 15 28 41 46 51
230 266 262 242 264 275 238 239 259 263 261 220 166 144 154 55 37 85 93 65 80 91 89 85 90 120 145 155 165 177 189 197 203 206 206 205 205 205 204 205 206 207 209 210 211 212 213 212 211 211 209 210 215 213 209 212 214 212 213 212 212 212 211 213 217 217 214 212 214 216 217 220 222 223 233 244 251 255 271 304 314 318 330 348 349 346 345 346 352 358 1 7 12 24 42 47 48
206 224 224 216 207 233 247 244 253 277 284 238 179 195 171 60 2 308 91 60 53 67 70 69 63 82 115 134 154 167 182 193 201 208 210 209 209 209 208 208 207 207 208 208 209 210 211 212 211 210 209 208 215 217 212 212 215 215 214 211 209 213 215 215 219 220 217 214 215 216 217 220 220 220 230 239 240 239 254 291 308 315 327 347 348 343 342 344 351 356 357 4 12 23 41 46 46
241 227 222 222 204 200 235 235 216 238 271 269 229 218 158 53 340 243 102 72 60 65 62 62 60 65 91 125 148 159 175 188 196 206 212 213 213 213 212 210 208 208 207 207 208 209 209 210 208 209 208 206 213 219 214 211 215 217 217 212 208 213 217 215 214 217 218 215 214 215 217 219 219 222 230 232 231 233 245 281 298 304 318 341 345 340 339 342 347 353 354 4 15 23 37 37 36